Regional Weather Roundup
Issued by NWS

Home | Current Version | Previous Version | Text Only | Print | Product List | Glossary On
Versions: 1 2 3 4 5 6 7 8 9 10 11 12 13 14 15 16 17 18 19 20 21 22 23 24 25 26 27 28 29 30 31 32 33 34 35 36 37 38 39 40 41 42 43 44 45 46 47 48 49 50
000
ASUS43 KMPX 012110
RWRMN
WEATHER ROUNDUP FOR MINNESOTA
NATIONAL WEATHER SERVICE TWIN CITIES/CHANHASSEN MN
300 PM CST MON MAR 01 2021


NOTE: "FAIR" INDICATES FEW OR NO CLOUDS BELOW 12,000 FEET WITH NO
SIGNIFICANT WEATHER AND/OR OBSTRUCTIONS TO VISIBILITY. N/A MEANS
CURRENT SKY AND/OR WEATHER CONDITIONS ARE NOT AVAILABLE.

MNZ060>063-068>070-012200-
   Twin Cities Metro

CITY           SKY/WX    TMP DP  RH WIND       PRES   REMARKS
TWIN CITIES    SUNNY     24   1  36 NW8       30.39S WCI  15
ST PAUL        SUNNY     23   1  38 NW7       30.40F WCI  15
CRYSTAL        SUNNY     20  -3  36 W7        30.38S WCI  11
BLAINE         SUNNY     21  -2  35 N6        30.38S WCI  14
LAKEVILLE      SUNNY     25   0  33 W5        30.38R WCI  19
EDEN PRAIRIE   SUNNY     23  -3  32 CALM      30.38S
SOUTH ST PAUL  SUNNY     23  -1  34 NW5       30.39R WCI  17
LAKE ELMO      FAIR      19  -2  38 MISG      30.39
$$
MNZ001>005-007-008-013>017-022>024-027-028-012200-
   Northwest Minnesota

CITY           SKY/WX    TMP DP  RH WIND       PRES   REMARKS
BEMIDJI        SUNNY     17  -8  33 SW5       30.29S WCI  10
HALLOCK        MOSUNNY   18   0  45 S18       30.25F WCI   2
ROSEAU         SUNNY     16 -13  27 SE8       30.26F WCI   5
WARROAD        SUNNY     10  -6  48 S6        30.27F WCI   1
THIEF RVR FALL MOSUNNY   15   0  51 S13       30.28F WCI   1
CROOKSTON      PTSUNNY   16  -2  45 SW16      30.29F WCI   0
FOSSTON        SUNNY     10  -2  56 S10       30.30F WCI  -3
DETROIT LAKES  SUNNY     16  -8  35 SW7       30.30F WCI   6
MOORHEAD       SUNNY     12  -9  37 S9        30.34F WCI   0
PARK RAPIDS    SUNNY     18  -6  34 W5        30.29S WCI  11
MAHNOMEN       MOCLDY    13  -5  45 S12       30.30F WCI  -1
$$
MNZ006-009>011-018-025>026-012200-
   North Central Minnesota

CITY           SKY/WX    TMP DP  RH WIND       PRES   REMARKS
BAUDETTE       SUNNY     13  -7  40 S6        30.28F WCI   4
FLAG ISLAND    SUNNY      3  -9  55 S17       30.27F WCI -17
INTL FALLS     SUNNY     11 -12  35 VRB5      30.28F WCI   3
WASKISH        SUNNY      9  -8  47 W7        30.31S WCI  -3
BIG FORK       SUNNY     16  -6  38 S3        30.33F
LONGVILLE      SUNNY     16 -11  29 S3        30.31S
GRAND RAPIDS   SUNNY     14  -8  37 CALM      30.32F
CRANE LAKE     SUNNY     12 -17  26 N3        30.32S
ORR            SUNNY     12 -17  26 CALM      30.26F
COOK           SUNNY     14  -9  34 W7        30.29S WCI   4
WALKER         CLEAR     15  -4  43 E3        30.29F
$$
MNZ012-019>021-037-012200-
   Northeast Minnesota

CITY           SKY/WX    TMP DP  RH WIND       PRES   REMARKS
DULUTH         SUNNY     16  -9  32 W10       30.28F WCI   4
ELY            SUNNY     10 -15  31 W7        30.26F WCI   0
HIBBING        SUNNY     14  -8  37 VRB6      30.29F WCI   5
EVELETH        SUNNY     14  -9  35 SW6       30.30S WCI   5
DULUTH HARBOR  SUNNY     18  -9  29 W8        30.36F WCI   7
TWO HARBORS    SUNNY     18 -11  27 NW6       30.28F WCI   9
SILVER BAY     SUNNY     19 -17  19 SW5       30.28F WCI  13
GRAND MARAIS     N/A     19  -9  28 MISG      30.29F
G MARAIS ARPRT SUNNY     12 -18  24 W8        30.18S WCI   1
$$
MNZ029>031-032-039>041-046>048-054>057-064-012200-
   West Central Minnesota

CITY           SKY/WX    TMP DP  RH WIND       PRES   REMARKS
FERGUS FALLS   SUNNY     10   0  61 S7        30.31F WCI   0
WHEATON        MOSUNNY   19   7  58 S8        30.38F WCI   9
MORRIS         SUNNY     19   1  45 SW7       30.37F WCI  10
ALEXANDRIA     SUNNY     16   2  54 SW9       30.34S WCI   4
ELBOW LAKE     FAIR      15   3  61 W5        30.36S WCI   7
WADENA         SUNNY     16  -6  38 CALM      30.33R
GLENWOOD       SUNNY     18   0  45 SW7       30.34F WCI   8
APPLETON       SUNNY     19   5  53 SW6       30.39S WCI  11
BENSON         SUNNY     16   0  48 SW6       30.39F WCI   7
ORTONVILLE     SUNNY     19   7  58 SW5       30.37S WCI  13
MADISON        SUNNY     19   7  58 CALM      30.41S
WILLMAR        FAIR      16   5  62 CALM      30.39F
$$
MNZ033>034-036-042>043-049>051-058-059-012200-
   Central Minnesota

CITY           SKY/WX    TMP DP  RH WIND       PRES   REMARKS
ST CLOUD       SUNNY     18  -7  32 CALM      30.36F
SAUK CENTRE    CLOUDY    16  -1  47 SW6       30.35F WCI   8
PAYNESVILLE    SUNNY     18   1  49 W5        30.36F WCI  11
AITKIN         SUNNY     16  -9  32 CALM      30.32F
PINE RIVER     SUNNY     18  -2  41 S7        30.34S WCI   8
BRAINERD       SUNNY     17  -9  31 W5        30.32F WCI  10
STAPLES        SUNNY     19  -2  38 CALM      30.32S
LONG PRAIRIE   FAIR      19  -2  38 S5        30.33F WCI  13
LITTLE FALLS   SUNNY     19  -8  30 S5        30.34F WCI  13
CAMP RIPLEY    FAIR      17  -3  40 SE8       30.34F WCI   7
LITCHFIELD     SUNNY     19   1  45 W5        30.37F WCI  13
BUFFALO        SUNNY     19  -2  38 MISG      30.39F
HUTCHINSON     MOSUNNY   18   4  54 SW5       30.39F WCI  11
$$
MNZ037-044-045-052-053-012200-
   East Central Minnesota

CITY           SKY/WX    TMP DP  RH WIND       PRES   REMARKS
PRINCETON      SUNNY     19  -9  27 CALM      30.36F
MORA           SUNNY     19  -8  30 SW6       30.37F WCI  11
CAMBRIDGE      SUNNY     19   0  42 SW3       30.37F
RUSH CITY      SUNNY     19  -8  30 CALM      30.38S
MOOSE LAKE     SUNNY     19  -8  30 NW6       30.32F WCI  11
HINCKLEY       CLEAR     21  -8  27 CALM      30.35F
CLOQUET        SUNNY     14 -15  26 CALM      30.29F
MCGREGOR       SUNNY     18  -8  32 S3        30.32F
$$
MNZ071>073-080-081-089-090-097-098-012200-
   Southwest Minnesota

CITY           SKY/WX    TMP DP  RH WIND       PRES   REMARKS
MONTEVIDEO     SUNNY     18   1  49 W6        30.39S WCI   9
GRANITE FALLS  SUNNY     19   8  61 S3        30.41S
CANBY          SUNNY     19   8  62 E5        30.40R WCI  12
MARSHALL       SUNNY     23   9  55 CALM      30.39F
REDWOOD FALLS  SUNNY     18   8  65 SW7       30.38F WCI   9
OLIVIA         SUNNY     16   5  62 CALM      30.38F
PIPESTONE      SUNNY     19  16  86 S7        30.34R WCI  10
WINDOM         SUNNY     19  12  73 CALM      30.36F
WORTHINGTON    SUNNY     27  16  63 CALM      30.37S
JACKSON        SUNNY     23  14  68 CALM      30.37F
TRACY          SUNNY     19   8  62 CALM      30.37F
SLAYTON        SUNNY     20  12  71 CALM      30.36F
$$
MNZ065>067-074>077-082>085-091>093-012200-
   South Central Minnesota

CITY           SKY/WX    TMP DP  RH WIND       PRES   REMARKS
MANKATO        SUNNY     23  12  62 NW7       30.40S WCI  15
NEW ULM        SUNNY     19   3  49 CALM      30.39F
ST JAMES       SUNNY     21  10  63 CALM      30.39S
FAIRMONT       SUNNY     26  12  55 VRB5      30.40R WCI  20
GLENCOE        SUNNY     17  -2  42 CALM      30.39F
FARIBAULT        N/A     21   7  53 CALM      30.39R
OWATONNA       SUNNY     19   5  53 NW6       30.38R WCI  11
WASECA         SUNNY     21   9  58 W7        30.40S WCI  13
ALBERT LEA     SUNNY     19   9  63 N7        30.38R WCI  10
$$
MNZ078>079-086>088-094>096-012200-
   Southeast Minnesota

CITY           SKY/WX    TMP DP  RH WIND       PRES   REMARKS
ROCHESTER      SUNNY     21   5  50 W9        30.35R WCI  11
RED WING       SUNNY     23   0  36 NW5       30.39R WCI  17
STANTON        SUNNY     21   3  45 CALM      30.39R
DODGE CENTER   SUNNY     18   1  49 NW7       30.37R WCI   8
WINONA         SUNNY     28   9  43 NW7       30.38R WCI  21
AUSTIN         SUNNY     19   9  63 N6        30.38R WCI  11
PRESTON        SUNNY     21   4  47 NW9       30.36R WCI  10
$$
ABBREVIATIONS USED IN REMARKS
   TC - TEMPERATURES IN CELSIUS
  WCI - WIND CHILL INDEX
   HX - HEAT INDEX
  VSB - VISIBILITY
$$




USA.gov is the U.S. government's official web portal to all federal, state and local government web resources and services.